Printer-friendly version

IAU Minor Planet Center

Minor Planet Center

MPEC 2006-W02 : 2006 VY13

The following Minor Planet Electronic Circular may be linked-to from your own Web pages, but must not otherwise be redistributed electronically.


Read MPEC 2006-W01 Read MPEC 2006-W03


M.P.E.C. 2006-W02                                Issued 2006 Nov. 16, 14:16 UT

     The Minor Planet Electronic Circulars contain information on unusual
         minor planets and routine data on comets.  They are published
   on behalf of Commission 20 of the International Astronomical Union by the
          Minor Planet Center, Smithsonian Astrophysical Observatory,
                          Cambridge, MA 02138, U.S.A.

             Prepared using the Tamkin Foundation Computer Network

                              MPC@CFA.HARVARD.EDU
          URL http://cfa-www.harvard.edu/iau/mpc.html  ISSN 1523-6714

                                   2006 VY13

Observations:
     K06V13Y* C2006 11 11.47076 10 51 04.35 +05 24 49.5          21.5 V EW002G96
     K06V13Y  C2006 11 11.47468 10 51 05.25 +05 24 44.1          21.2 V EW002G96
     K06V13Y  C2006 11 11.47860 10 51 06.08 +05 24 39.0          21.1 V EW002G96
     K06V13Y  C2006 11 11.51559 10 51 14.25 +05 23 56.7          20.2 V EW002G96
     K06V13Y  C2006 11 11.51852 10 51 14.90 +05 23 53.7          19.7 V EW002G96
     K06V13Y  C2006 11 11.52137 10 51 15.55 +05 23 50.3          20.0 V EW002G96
     K06V13Y  C2006 11 11.52422 10 51 16.16 +05 23 47.1          20.1 V EW002G96
     K06V13Y  C2006 11 12.45713 10 54 43.77 +05 05 53.0          20.0 V EW002G96
     K06V13Y  C2006 11 12.45836 10 54 43.88 +05 05 51.8          20.4 V EW002G96
     K06V13Y  C2006 11 12.45961 10 54 44.24 +05 05 50.8          20.8 V EW002G96
     K06V13Y  C2006 11 12.46090 10 54 44.53 +05 05 48.7          21.2 V EW002G96
     K06V13Y  C2006 11 13.48784 10 58 33.34 +04 45 59.9          19.2 V EW002G96
     K06V13Y  C2006 11 13.49043 10 58 33.97 +04 45 56.9          19.4 V EW002G96
     K06V13Y  C2006 11 13.50611 10 58 37.38 +04 45 38.7          20.2 V EW002G96
     K06V13Y  C2006 11 13.50699 10 58 37.63 +04 45 37.5          19.6 V EW002G96
     K06V13Y  C2006 11 13.50790 10 58 37.81 +04 45 36.9          19.8 V EW002G96
     K06V13Y  C2006 11 13.50879 10 58 38.02 +04 45 36.1          19.7 V EW002G96
     K06V13Y  C2006 11 13.52744 10 58 42.16 +04 45 14.4          18.1 V EW002G96
     K06V13Y  C2006 11 13.52972 10 58 42.67 +04 45 12.0          20.1 V EW002G96
     K06V13Y  C2006 11 13.53200 10 58 43.14 +04 45 08.3          19.2 V EW002G96
     K06V13Y  C2006 11 13.53427 10 58 43.64 +04 45 06.4          19.1 V EW002G96
     K06V13Y  C2006 11 16.49174 11 09 45.68 +03 47 22.4          19.8 V EW002G96
     K06V13Y  C2006 11 16.49921 11 09 47.34 +03 47 13.4          20.3 V EW002G96
     K06V13Y  C2006 11 16.50677 11 09 49.03 +03 47 04.5          20.9 V EW002G96
     K06V13Y  C2006 11 16.51412 11 09 50.65 +03 46 55.9          20.3 V EW002G96
     K06V13Y 5C2006 11 16.53958 11 09 56.33 +03 46 25.7          20.2 R EW002673
     K06V13Y 5C2006 11 16.54491 11 09 57.60 +03 46 19.9                 EW002673
     K06V13Y 5C2006 11 16.54850 11 09 58.38 +03 46 15.2                 EW002673
     K06V13Y 5C2006 11 16.55579 11 09 59.97 +03 46 06.6                 EW002673

Observer details:
673 Table Mountain Observatory, Wrightwood.  Observer J. Young.  0.61-m f/16
    Cassegrain + CCD.
G96 Mt. Lemmon Survey.  Observers E. J. Christensen, R. A. Kowalski.
    Measurers E. C. Beshore, E. J. Christensen, G. J. Garradd, A. R. Gibbs,
    A. D. Grauer, R. E. Hill, R. A. Kowalski, S. M. Larson, R. H. McNaught.
    1.5-m reflector + CCD.

Orbital elements:
2006 VY13                                                Earth MOID = 0.2137 AU
Epoch 2006 Sept. 22.0 TT = JDT 2454000.5                MPC
M 339.61867              (2000.0)            P               Q
n   0.21465682     Peri.   16.71200     -0.92094355     -0.38619656
a   2.7625253      Node   140.44286     +0.34752769     -0.87441284
e   0.5642523      Incl.    4.69325     +0.17631644     -0.29369099
P   4.59           H   17.2           G   0.15           U   7
Residuals in seconds of arc
061111 G96  0.1+  1.3+    061112 G96  0.1+  0.5-    061113 G96  0.2+  0.0
061111 G96  0.6+  0.3+    061113 G96  0.2-  0.4-    061116 G96  0.0   0.1+
061111 G96  0.1+  0.3-    061113 G96  0.6+  0.4-    061116 G96  0.0   0.1-
061111 G96  0.4+  0.2-    061113 G96  0.3-  0.4-    061116 G96  0.1+  0.1-
061111 G96  0.4+  0.1+    061113 G96  0.5+  0.6-    061116 G96  0.2-  0.0
061111 G96  0.8+  0.0     061113 G96  0.2+  0.1-    061116 673  0.5-  0.0
061111 G96  0.5+  0.0     061113 G96  0.4+  0.1+    061116 673  0.8+  0.5+
061112 G96  1.2+  0.6-    061113 G96  0.6+  0.0     061116 673  0.5+  0.1+
061112 G96  1.2-  0.4-    061113 G96  0.7+  0.3+    061116 673  0.0   0.1+
061112 G96  0.0   0.1+    061113 G96  0.2+  0.8-

Ephemeris:
2006 VY13                a,e,i = 2.76, 0.56, 5                   q = 1.2038
Date    TT    R. A. (2000) Decl.     Delta      r     Elong.  Phase     V
2006 11 11    10 49.32   +05 33.9    1.336    1.312    66.8    43.9    20.1
2006 11 21    11 26.69   +02 18.0    1.274    1.271    67.0    45.7    20.0
2006 12 01    12 04.62   -01 03.1    1.227    1.239    67.1    47.1    19.9
2006 12 11    12 42.78   -04 20.4    1.192    1.217    67.2    48.2    19.8
2006 12 21    13 20.75   -07 25.0    1.169    1.205    67.4    48.9    19.8
2006 12 31    13 58.01   -10 08.8    1.155    1.205    68.1    49.2    19.8
2007 01 10    14 34.09   -12 26.5    1.147    1.217    69.2    49.1    19.8
2007 01 20    15 08.48   -14 15.3    1.143    1.239    70.8    48.6    19.8
2007 01 30    15 40.67   -15 34.7    1.139    1.271    73.1    47.8    19.8
2007 02 09    16 10.25   -16 26.9    1.135    1.313    76.1    46.9    19.8
2007 02 19    16 36.83   -16 55.0    1.126    1.361    79.8    45.6    19.9
2007 03 01    17 00.06   -17 03.2    1.114    1.416    84.3    44.1    19.9
2007 03 11    17 19.64   -16 56.2    1.098    1.476    89.6    42.3    19.9
2007 03 21    17 35.26   -16 38.3    1.077    1.539    95.8    40.1    19.9
2007 03 31    17 46.57   -16 14.1    1.053    1.605   102.9    37.3    19.8
2007 04 10    17 53.33   -15 47.6    1.028    1.673   111.1    34.0    19.8
2007 04 20    17 55.27   -15 22.3    1.005    1.743   120.3    29.9    19.7
2007 04 30    17 52.38   -15 01.2    0.989    1.813   130.5    25.0    19.6
2007 05 10    17 45.09   -14 46.4    0.985    1.884   141.7    19.4    19.5
2007 05 20    17 34.28   -14 39.0    0.996    1.955   153.5    13.4    19.4
2007 05 30    17 21.47   -14 39.5    1.029    2.025   165.0     7.4    19.3
2007 06 09    17 08.49   -14 47.5    1.085    2.095   171.9     3.9    19.3
2007 06 19    16 56.95   -15 02.9    1.166    2.164   165.3     6.8    19.7
2007 06 29    16 48.05   -15 25.0    1.270    2.233   154.8    11.2    20.2
2007 07 09    16 42.33   -15 52.8    1.396    2.300   144.4    14.9    20.6
2007 07 19    16 39.84   -16 25.1    1.540    2.367   134.6    17.8    20.9
2007 07 29    16 40.37   -17 00.4    1.699    2.432   125.3    19.9    21.3
2007 08 08    16 43.53   -17 37.3    1.871    2.496   116.7    21.3    21.6
2007 08 18    16 48.93   -18 14.4    2.052    2.559   108.5    22.0    21.9

Timothy B. Spahr             (C) Copyright 2006 MPC           M.P.E.C. 2006-W02

Read MPEC 2006-W01 Read MPEC 2006-W03


Our Web policy. Index to the CBAT/MPC/ICQ pages.


Valid HTML 4.01!